User: anonymous   Login
Location: Unspecified
(0.0000°N, 0.0000°E)
Time: 09:38:42
(UTC+00:00)
Language:

ESSA 5 - Orbit

View from above orbital plane
View from above orbital plane
View from above satellite
View from above satellite

Ground track
Ground track

The orbit data is extracted from the following two-line orbital elements,

1  2757U 67036A   17295.78115885 -.00000047 +00000-0 +57305-5 0  9997
2  2757 101.9023 345.9028 0043020 007.2363 099.2442 12.68497819338379
Epoch (UTC): 22 October 2017 18:44:52
Eccentricity: 0.0043020
inclination: 101.9023°
perigee height: 1354 km
apogee height: 1421 km
right ascension of ascending node: 345.9028°
argument of perigee: 7.2363°
revolutions per day: 12.68497819
mean anomaly at epoch: 99.2442°
orbit number at epoch: 33837

The dashed part of the orbit path shows where the satellite is in the earth's shadow,  

DLR